[[{"header":{"parameterUnit":"m.s-1","parameterCategory":2,"la1":30.2991,"la2":30.254,"lo1":-89.0895,"lo2":-89.0444,"dy":0.0017,"dx":0.0017,"nx":28,"ny":28,"refTime":"2025-08-04T09:00:00:Z","depth":"0","parameterNumber":2,"parameterNumberName":"U-component_of_CURRENTS"},"data":[0,0,0,0,0,0,0,0,0,0,0,0,0,0,0,0,0,0,0,0,0,0,0,0,0,0,0,0,0,0,0,0,0,0,0,0,0,0,0,0,0,0,0,0,0,0,0,0,0,0,0,0,0,0,0,0,0,0,0.1563,0.1563,0,0.1467,0.1465,0.1463,0.1364,0.1364,0.1363,0.1363,0.1171,0.1166,0.1162,0,0,0,0,0,0,0,0,0,0,0,0,0,0.1514,0.1515,0.1563,0.1563,0.1562,0.1467,0.1465,0.1463,0.1364,0.1364,0.1363,0.1362,0.1172,0.1167,0.1161,0,0,0,0,0,0,0,0,0,0,0,0,0,0.1481,0.1516,0.1563,0.1508,0.1503,0.1468,0.1465,0.1462,0.1365,0.1364,0.1363,0.1362,0.1174,0.1167,0.1161,0.1136,0,0,0.114,0.1137,0,0,0,0,0,0,0,0,0.1483,0.1481,0.1517,0.1512,0.1506,0.1434,0.1378,0.1351,0.1365,0.1408,0.1363,0.1362,0.1256,0.1243,0.1216,0.1127,0.1118,0.1139,0.1135,0.1132,0.113,0,0,0,0,0,0,0,0.1485,0.1484,0.1516,0.1516,0.151,0.1438,0.1433,0.1371,0.133,0.1404,0.1399,0.1402,0.1251,0.1223,0.121,0.1116,0.1139,0.1133,0.1129,0.1126,0.1239,0.1246,0,0,0,0,0,0,0.1524,0.1488,0.152,0.1514,0.1501,0.1441,0.1434,0.1451,0.1332,0.1317,0.1403,0.1398,0.1235,0.1218,0.1203,0.1333,0.1132,0.1126,0.1122,0.1232,0.1241,0.1249,0,0,0,0,0,0,0.1523,0.1528,0.1524,0.1504,0.15,0.1445,0.1463,0.145,0.1429,0.1334,0.1314,0.1398,0.1233,0.1213,0.1186,0.1318,0.1123,0.1116,0.1224,0.1235,0.1245,0.1485,0,0,0,0,0,0,0.1522,0.1528,0.1542,0.1508,0.1503,0.1509,0.1464,0.1449,0.1436,0.1429,0.1323,0.1304,0.1231,0.1197,0.1179,0.1305,0.1111,0.1215,0.1229,0.1241,0.1468,0.1502,0.1532,0,0,0,0,0,0.1521,0.1539,0.1544,0.1547,0.1528,0.151,0.15,0.145,0.1438,0.1428,0.1386,0.1308,0.1273,0.1194,0.1172,0.1299,0.1208,0.1225,0.124,0.1453,0.1495,0.1531,0,0,0,0,0,0,0.1516,0.1531,0.1535,0.1556,0.1544,0.1497,0.1485,0.1467,0.1425,0.1426,0.1334,0.1313,0.1375,0.1298,0.1215,0.1388,0.1254,0.1266,0.1425,0.1463,0.1494,0.1549,0.1105,0,0,0,0,0,0.1532,0.1552,0.1552,0.1567,0.157,0.1537,0.1523,0.1506,0.1473,0.1452,0.1387,0.1374,0.1426,0.1403,0.1403,0.1428,0.143,0.1525,0.1557,0.1584,0.1625,0.1756,0.1803,0.1301,0.1301,0.1301,0,0,0.1534,0.1546,0.1556,0.1568,0.1553,0.1567,0.1523,0.1523,0.1559,0.1439,0.1447,0.1466,0.1465,0.1544,0.1567,0.1482,0.1731,0.1604,0.1627,0.1653,0.1778,0.1826,0.1869,0.1312,0.131,0.1308,0,0,0.1545,0.1566,0.1585,0.1586,0.1593,0.159,0.1603,0.158,0.1595,0.1604,0.1616,0.1723,0.1654,0.1762,0.1797,0.2005,0.1913,0.2,0.217,0.2298,0.2339,0.2376,0.2439,0.248,0.1994,0.1995,0.1995,0,0.1544,0.1587,0.1583,0.16,0.1624,0.1614,0.1652,0.1667,0.1642,0.1706,0.1631,0.1788,0.1798,0.202,0.2131,0.2085,0.2088,0.2009,0.2337,0.2374,0.2407,0.2463,0.2504,0.2008,0.2007,0.2005,0.2004,0,0.1572,0.1606,0.1618,0.1658,0.1677,0.1707,0.175,0.1789,0.181,0.1848,0.2032,0.2074,0.2174,0.2251,0.2247,0.2542,0.2447,0.2375,0.2228,0.2471,0.2515,0.2554,0.2028,0.2023,0.2019,0.2015,0,0,0.1576,0.1632,0.1636,0.1691,0.1727,0.1761,0.1854,0.1972,0.207,0.2114,0.2259,0.2483,0.2521,0.2578,0.2631,0.2781,0.3062,0.2685,0.2685,0.2728,0.3289,0.3236,0.3271,0.3011,0.3019,0.3026,0.3222,0,0.1608,0.1686,0.1697,0.1791,0.1856,0.1898,0.1984,0.2097,0.2171,0.2286,0.2473,0.2601,0.2636,0.2708,0.289,0.3009,0.3174,0.3013,0.3065,0.3067,0.2975,0.332,0.3284,0.3457,0.3258,0.3265,0.3269,0,0.1649,0.1708,0.1808,0.1931,0.196,0.1999,0.2184,0.2254,0.2438,0.2498,0.268,0.2742,0.3046,0.2984,0.3344,0.3211,0.331,0.3385,0.3391,0.3289,0.3091,0.3187,0.3533,0.3423,0.3327,0.3322,0.3318,0,0.173,0.1802,0.1908,0.1938,0.2047,0.2119,0.2179,0.2335,0.2419,0.2628,0.268,0.2977,0.3086,0.3303,0.3475,0.3411,0.3787,0.369,0.3746,0.3736,0.37,0.3675,0.3937,0.3981,0.398,0.398,0.3979,0,0.1812,0.1901,0.1944,0.2012,0.2121,0.2178,0.2306,0.2404,0.2529,0.2633,0.2785,0.2904,0.3168,0.3366,0.3533,0.3771,0.3836,0.388,0.3843,0.3781,0.3762,0.3647,0.359,0.3987,0.3985,0.3984,0.3983,0,0.1919,0.1951,0.2059,0.2146,0.2166,0.2243,0.2308,0.2381,0.2501,0.2623,0.268,0.2895,0.3161,0.3392,0.3726,0.3817,0.398,0.4106,0.3989,0.3939,0.3872,0.3828,0.3908,0.3804,0.4239,0.424,0.424,0,0.201,0.2066,0.2121,0.213,0.2159,0.2237,0.2261,0.2367,0.2415,0.2611,0.2659,0.2922,0.3103,0.3548,0.382,0.4126,0.4008,0.4206,0.4148,0.3973,0.3897,0.368,0.3569,0.4185,0.4185,0.4186,0.4186,0,0.2138,0.2119,0.2166,0.2165,0.2175,0.2191,0.2229,0.226,0.2372,0.2471,0.2616,0.2776,0.3201,0.3516,0.3889,0.4079,0.4031,0.4214,0.4114,0.4006,0.3715,0.3555,0.3878,0.4187,0.4187,0.4187,0.4186,0.4186,0.2179,0.2184,0.2169,0.2166,0.2158,0.2112,0.2097,0.214,0.2204,0.2321,0.2515,0.2734,0.3229,0.3776,0.391,0.4135,0.404,0.412,0.4118,0.3936,0.3765,0.4068,0.4263,0.4263,0.4264,0.4264,0.4264,0,0.2182,0.2157,0.2157,0.2103,0.2036,0.2054,0.2037,0.1998,0.2023,0.2233,0.2376,0.2858,0.3258,0.3654,0.4099,0.4062,0.389,0.3984,0.3714,0.3636,0.4023,0.3946,0.3983,0.3983,0.3983,0.3983,0.3983,0.3983,0.2172,0.2133,0.2105,0.1975,0.1921,0.1803,0.1761,0.1753,0.1867,0.2073,0.2326,0.259,0.3171,0.378,0.4004,0.3965,0.3682,0.3578,0.347,0.3786,0.3796,0.3806,0.3721,0.3711,0.3711,0.2951,0.2946,0.2942]},{"header":{"parameterUnit":"m.s-1","parameterCategory":2,"la1":30.2991,"la2":30.254,"lo1":-89.0895,"lo2":-89.0444,"dy":0.0017,"dx":0.0017,"nx":28,"ny":28,"refTime":"2025-08-04T09:00:00:Z","depth":"0","parameterNumber":3,"parameterNumberName":"V-component_of_CURRENTS"},"data":[0,0,0,0,0,0,0,0,0,0,0,0,0,0,0,0,0,0,0,0,0,0,0,0,0,0,0,0,0,0,0,0,0,0,0,0,0,0,0,0,0,0,0,0,0,0,0,0,0,0,0,0,0,0,0,0,0,0,-0.0377,-0.0378,0,-0.0442,-0.0443,-0.0443,-0.0442,-0.0441,-0.044,-0.044,-0.041,-0.0409,-0.0409,0,0,0,0,0,0,0,0,0,0,0,0,0,-0.0247,-0.025,-0.0377,-0.0378,-0.0379,-0.0442,-0.0443,-0.0444,-0.0442,-0.0441,-0.044,-0.0439,-0.041,-0.0409,-0.0409,0,0,0,0,0,0,0,0,0,0,0,0,0,-0.0305,-0.025,-0.0377,-0.0388,-0.039,-0.0442,-0.0443,-0.0444,-0.0442,-0.0441,-0.044,-0.0439,-0.041,-0.041,-0.0409,-0.0427,0,0,-0.0408,-0.0408,0,0,0,0,0,0,0,0,-0.0301,-0.0309,-0.0385,-0.0387,-0.039,-0.0435,-0.0386,-0.0434,-0.0442,-0.0419,-0.044,-0.0439,-0.0412,-0.0411,-0.0423,-0.0426,-0.0424,-0.0408,-0.0408,-0.0408,-0.0408,0,0,0,0,0,0,0,-0.0297,-0.0306,-0.04,-0.0387,-0.0389,-0.0389,-0.0395,-0.0396,-0.0416,-0.0421,-0.0422,-0.0434,-0.0412,-0.0424,-0.0422,-0.0424,-0.0408,-0.0408,-0.0408,-0.0408,-0.0215,-0.021,0,0,0,0,0,0,-0.0297,-0.0303,-0.0398,-0.0403,-0.0345,-0.0392,-0.0399,-0.0419,-0.0419,-0.0419,-0.0435,-0.0434,-0.0425,-0.0423,-0.0421,-0.0235,-0.0408,-0.0408,-0.0408,-0.022,-0.0214,-0.0208,0,0,0,0,0,0,-0.0294,-0.0305,-0.0396,-0.0355,-0.0367,-0.0395,-0.0418,-0.0421,-0.0436,-0.043,-0.0428,-0.0446,-0.0424,-0.0422,-0.0377,-0.0241,-0.0408,-0.0407,-0.0226,-0.0218,-0.0211,0.0005,0,0,0,0,0,0,-0.029,-0.0304,-0.0319,-0.0356,-0.037,-0.0428,-0.0419,-0.0423,-0.0446,-0.0445,-0.044,-0.0436,-0.0423,-0.0377,-0.0377,-0.0244,-0.0407,-0.0232,-0.0222,-0.0213,-0.0008,0.0019,0.0043,0,0,0,0,0,-0.0285,-0.0316,-0.032,-0.0331,-0.039,-0.043,-0.0436,-0.045,-0.0448,-0.0459,-0.0416,-0.0436,-0.0315,-0.0375,-0.0375,-0.0238,-0.0236,-0.0225,-0.0214,-0.0019,0.0014,0.0042,0,0,0,0,0,0,-0.0279,-0.032,-0.0325,-0.0369,-0.0395,-0.043,-0.0453,-0.0457,-0.0441,-0.0434,-0.0413,-0.0405,-0.0292,-0.032,-0.0386,-0.0152,-0.0264,-0.0252,-0.0115,-0.0084,-0.0059,0.0048,-0.0407,0,0,0,0,0,-0.0283,-0.0309,-0.0347,-0.0381,-0.04,-0.0426,-0.0445,-0.0454,-0.0448,-0.0444,-0.0419,-0.0361,-0.0249,-0.0218,-0.0166,-0.0087,-0.0131,0.0014,0.004,0.0061,0.0152,0.0155,0.0189,-0.0172,-0.0172,-0.0172,0,0,-0.0289,-0.0317,-0.0331,-0.038,-0.0406,-0.0371,-0.0435,-0.0472,-0.0365,-0.0441,-0.031,-0.0292,-0.021,-0.007,-0.0021,-0.0078,0.0129,0.0075,0.0094,0.0174,0.0171,0.0206,0.0237,-0.0164,-0.0166,-0.0167,0,0,-0.03,-0.0343,-0.0356,-0.036,-0.0398,-0.0378,-0.0384,-0.0408,-0.0345,-0.026,-0.0212,-0.0103,-0.0041,0.0114,0.0195,0.0381,0.0262,0.0366,0.0585,0.0586,0.0616,0.0641,0.0571,0.0589,0.0379,0.038,0.038,0,-0.0296,-0.0291,-0.0366,-0.0356,-0.0294,-0.036,-0.0283,-0.0238,-0.0218,-0.0089,-0.0189,0.0073,0.0105,0.0419,0.0508,0.0456,0.0369,0.0458,0.0618,0.0644,0.0666,0.0588,0.0606,0.0391,0.039,0.0389,0.0388,0,-0.0287,-0.026,-0.0271,-0.0221,-0.018,-0.0149,-0.007,0.0013,0.0071,0.015,0.039,0.0415,0.0593,0.0624,0.0635,0.0876,0.0728,0.064,0.0537,0.0716,0.0621,0.0635,0.0408,0.0404,0.04,0.0398,0,0,-0.0276,-0.0254,-0.0241,-0.0128,-0.0077,-0.001,0.0191,0.0412,0.0611,0.0629,0.0885,0.1091,0.1055,0.1149,0.1144,0.117,0.1236,0.098,0.0974,0.0905,0.1153,0.1082,0.1087,0.1118,0.1123,0.1127,0.0998,0,-0.0202,-0.0088,-0.009,0.0128,0.0244,0.0326,0.0553,0.0745,0.087,0.1064,0.1172,0.1342,0.127,0.1318,0.1363,0.1272,0.1292,0.1277,0.1,0.0994,0.0905,0.1112,0.1077,0.0964,0.101,0.1013,0.1014,0,-0.0123,-0.003,0.017,0.0448,0.0506,0.0629,0.1041,0.1214,0.1475,0.1557,0.1713,0.1695,0.186,0.1665,0.1662,0.1617,0.1454,0.1331,0.1319,0.1217,0.0956,0.0808,0.0986,0.0698,0.1034,0.1032,0.1031,0,0.0073,0.0213,0.0427,0.0497,0.0736,0.0919,0.109,0.1384,0.1588,0.1821,0.1888,0.2044,0.2042,0.1939,0.172,0.1662,0.1579,0.1448,0.125,0.1235,0.1155,0.1128,0.1044,0.1454,0.1454,0.1455,0.1455,0,0.026,0.0455,0.0519,0.0658,0.0967,0.1086,0.1434,0.1631,0.1855,0.2065,0.2107,0.2209,0.2086,0.2001,0.1804,0.1588,0.1645,0.1377,0.1255,0.122,0.1202,0.0902,0.0751,0.145,0.1451,0.1452,0.1453,0,0.0508,0.0532,0.078,0.0987,0.106,0.1294,0.1563,0.1787,0.1967,0.2198,0.2246,0.2321,0.2225,0.2063,0.1855,0.167,0.1316,0.1367,0.1312,0.1193,0.0775,0.0638,0.0551,0.0382,0.1173,0.1171,0.117,0,0.0681,0.0797,0.0979,0.107,0.1155,0.1431,0.161,0.1847,0.2023,0.2253,0.2341,0.2327,0.2341,0.2044,0.1749,0.1451,0.1217,0.1186,0.1161,0.0843,0.0598,0.0547,0.0406,0.108,0.1078,0.1077,0.1075,0,0.0967,0.0965,0.1104,0.1253,0.1399,0.1621,0.185,0.199,0.223,0.2371,0.2492,0.2508,0.2274,0.2004,0.1625,0.1405,0.0999,0.1142,0.0853,0.0622,0.0529,0.027,0.0999,0.1061,0.1062,0.1063,0.1064,0.1065,0.111,0.1199,0.1247,0.142,0.1571,0.1748,0.1923,0.209,0.2317,0.251,0.2541,0.2588,0.2249,0.1769,0.1406,0.0788,0.0836,0.0588,0.0466,0.0458,0.0297,0.0993,0.0896,0.0896,0.0897,0.0897,0.0897,0,0.1207,0.1249,0.1406,0.1549,0.1705,0.178,0.2032,0.2161,0.2335,0.2518,0.2614,0.253,0.1984,0.1483,0.0699,0.0203,0.0041,-0.0064,-0.0158,-0.0263,0.0378,0.0374,0.0114,0.0115,0.0115,0.0115,0.0115,0.0116,0.1227,0.1313,0.1374,0.159,0.1708,0.1896,0.2019,0.2186,0.2358,0.2537,0.2633,0.2729,0.2437,0.0973,-0.0105,-0.0395,-0.0802,-0.0818,-0.1037,-0.0644,-0.0593,-0.0545,-0.0583,-0.1039,-0.104,-0.1627,-0.1633,-0.1638]}],[{"header":{"parameterUnit":"m.s-1","parameterCategory":2,"la1":30.2991,"la2":30.254,"lo1":-89.0895,"lo2":-89.0444,"dy":0.0017,"dx":0.0017,"nx":28,"ny":28,"refTime":"2025-08-04T09:00:00:Z","depth":"2","parameterNumber":2,"parameterNumberName":"U-component_of_CURRENTS"},"data":[0,0,0,0,0,0,0,0,0,0,0,0,0,0,0,0,0,0,0,0,0,0,0,0,0,0,0,0,0,0,0,0,0,0,0,0,0,0,0,0,0,0,0,0,0,0,0,0,0,0,0,0,0,0,0,0,0,0,0.1693,0.1693,0,0.174,0.1741,0.1742,0.1747,0.1747,0.1746,0.1746,0.1801,0.1803,0.1805,0,0,0,0,0,0,0,0,0,0,0,0,0,0.1595,0.1597,0.1692,0.1693,0.1694,0.174,0.1741,0.1742,0.1747,0.1747,0.1746,0.1746,0.18,0.1802,0.1805,0,0,0,0,0,0,0,0,0,0,0,0,0,0.164,0.1598,0.1692,0.1702,0.1703,0.174,0.1741,0.1742,0.1748,0.1747,0.1746,0.1745,0.1799,0.1802,0.1805,0.1839,0,0,0.1814,0.1815,0,0,0,0,0,0,0,0,0.1638,0.1644,0.17,0.1701,0.1703,0.1737,0.1727,0.1774,0.1748,0.1731,0.1746,0.1745,0.178,0.1785,0.1796,0.1841,0.1844,0.1814,0.1816,0.1817,0.1818,0,0,0,0,0,0,0,0.1635,0.1642,0.1712,0.17,0.1702,0.17,0.1705,0.1736,0.176,0.1733,0.1733,0.1738,0.1781,0.1793,0.1797,0.1845,0.1814,0.1817,0.1819,0.182,0.1995,0.1997,0,0,0,0,0,0,0.1629,0.1639,0.1711,0.1713,0.1667,0.1702,0.1708,0.1727,0.176,0.1764,0.1738,0.1738,0.1789,0.1794,0.1799,0.1883,0.1817,0.182,0.1822,0.1992,0.1995,0.1998,0,0,0,0,0,0,0.1627,0.1636,0.1709,0.1676,0.1685,0.1704,0.1725,0.1728,0.1751,0.1764,0.1768,0.1758,0.1788,0.1795,0.1856,0.1883,0.1821,0.1824,0.1988,0.1993,0.1997,0.2023,0,0,0,0,0,0,0.1625,0.1635,0.1651,0.1676,0.1686,0.1739,0.1726,0.173,0.1754,0.1754,0.1783,0.1786,0.1788,0.1852,0.1859,0.1886,0.1826,0.1985,0.199,0.1995,0.2019,0.2028,0.2036,0,0,0,0,0,0.1621,0.1641,0.1652,0.166,0.1707,0.174,0.1746,0.1757,0.1756,0.1773,0.1806,0.1786,0.1891,0.1857,0.1865,0.1893,0.1982,0.1989,0.1995,0.2015,0.2026,0.2036,0,0,0,0,0,0,0.1608,0.1645,0.1656,0.1688,0.1717,0.1741,0.1752,0.1768,0.1808,0.1805,0.1822,0.183,0.1892,0.1903,0.1864,0.1965,0.1934,0.1942,0.1947,0.1957,0.1966,0.1966,0.1829,0,0,0,0,0,0.1614,0.1636,0.1674,0.1698,0.1711,0.1738,0.1754,0.1764,0.1797,0.1813,0.1839,0.1877,0.1925,0.1948,0.1983,0.204,0.2066,0.2067,0.2076,0.2083,0.2093,0.2171,0.2187,0.202,0.202,0.202,0,0,0.1613,0.1636,0.165,0.1696,0.1714,0.1746,0.1745,0.177,0.1806,0.1814,0.1872,0.1905,0.1949,0.2011,0.2039,0.2022,0.2147,0.2091,0.2096,0.2103,0.2179,0.2195,0.2209,0.2024,0.2023,0.2023,0,0,0.1621,0.1647,0.167,0.1696,0.1729,0.175,0.1763,0.1801,0.1827,0.1885,0.1912,0.1971,0.2027,0.2076,0.2105,0.2191,0.2189,0.2199,0.2239,0.2315,0.2329,0.2341,0.2396,0.2412,0.2203,0.2203,0.2203,0,0.1617,0.1668,0.1681,0.171,0.1741,0.1757,0.1798,0.1826,0.1883,0.193,0.1904,0.2039,0.206,0.2172,0.2194,0.2207,0.2243,0.2186,0.2323,0.2336,0.2348,0.2401,0.242,0.2205,0.2205,0.2204,0.2204,0,0.165,0.1691,0.1704,0.1753,0.1782,0.1819,0.1858,0.1901,0.1928,0.1968,0.2071,0.2111,0.2199,0.2212,0.222,0.2334,0.233,0.232,0.2286,0.2366,0.2418,0.2436,0.2208,0.2207,0.2206,0.2206,0,0,0.1651,0.1719,0.1727,0.1769,0.1817,0.1849,0.1908,0.1995,0.2058,0.2097,0.2196,0.2266,0.2292,0.2331,0.2361,0.2412,0.2515,0.2399,0.2402,0.2434,0.2677,0.2529,0.2535,0.2526,0.253,0.2533,0.2678,0,0.1687,0.1757,0.1782,0.1858,0.1907,0.1944,0.2006,0.2074,0.2129,0.2219,0.2276,0.2365,0.2338,0.2386,0.2439,0.2503,0.2566,0.2476,0.2613,0.2617,0.2459,0.2552,0.2367,0.2468,0.2696,0.2699,0.2701,0,0.1726,0.1776,0.1857,0.1948,0.1971,0.2013,0.2131,0.2188,0.23,0.2345,0.2433,0.2472,0.258,0.2527,0.2673,0.2617,0.2658,0.2684,0.2691,0.2555,0.2502,0.2429,0.2493,0.2732,0.2729,0.2727,0.2725,0,0.1745,0.1834,0.1908,0.1937,0.2029,0.2084,0.2137,0.2238,0.2305,0.2436,0.2486,0.261,0.267,0.2747,0.278,0.2751,0.2911,0.2884,0.2797,0.2787,0.2656,0.2627,0.3,0.3,0.3,0.2999,0.2999,0,0.1789,0.1848,0.1926,0.1968,0.2063,0.2113,0.2218,0.2289,0.2397,0.247,0.2554,0.2619,0.2724,0.2806,0.284,0.2863,0.2972,0.2824,0.2823,0.2659,0.2629,0.2874,0.2857,0.3005,0.3003,0.3002,0.3001,0,0.1795,0.1853,0.1936,0.2037,0.2072,0.2135,0.224,0.2298,0.2409,0.2505,0.2547,0.2666,0.2736,0.2816,0.294,0.292,0.2972,0.2957,0.2737,0.2704,0.2789,0.2773,0.2896,0.2892,0.2889,0.2886,0.2884,0,0.1803,0.1845,0.1955,0.1985,0.2031,0.2124,0.2167,0.2293,0.2344,0.2506,0.2535,0.2647,0.2663,0.2777,0.2784,0.2831,0.2901,0.2686,0.2581,0.2796,0.2784,0.2772,0.2761,0.2443,0.2437,0.2433,0.2429,0,0.1789,0.1824,0.1873,0.1944,0.1996,0.2072,0.2146,0.2197,0.2324,0.24,0.2481,0.2515,0.2575,0.2513,0.2547,0.2546,0.2655,0.2585,0.2928,0.2458,0.237,0.2356,0.2361,0.2387,0.2392,0.2395,0.2397,0.2399,0.1737,0.1758,0.1802,0.1872,0.1933,0.1989,0.2022,0.2089,0.2166,0.2203,0.2307,0.228,0.2323,0.2233,0.2209,0.2216,0.2371,0.2318,0.2334,0.2354,0.2236,0.2142,0.2096,0.2099,0.2101,0.2103,0.2104,0,0.1642,0.1673,0.1716,0.1789,0.1822,0.1906,0.1971,0.1963,0.2,0.201,0.2021,0.1855,0.1822,0.188,0.1831,0.1847,0.1846,0.1783,0.1792,0.1834,0.1872,0.1729,0.1456,0.1454,0.1452,0.145,0,0,0.1577,0.1575,0.1616,0.1654,0.1719,0.1746,0.1776,0.1765,0.1771,0.1639,0.1595,0.1653,0.1803,0.1586,0.1586,0.1521,0.1654,0.1459,0.1984,0.2035,0.2069,0.2191,0.202,0,0,0,0,0]},{"header":{"parameterUnit":"m.s-1","parameterCategory":2,"la1":30.2991,"la2":30.254,"lo1":-89.0895,"lo2":-89.0444,"dy":0.0017,"dx":0.0017,"nx":28,"ny":28,"refTime":"2025-08-04T09:00:00:Z","depth":"2","parameterNumber":3,"parameterNumberName":"V-component_of_CURRENTS"},"data":[0,0,0,0,0,0,0,0,0,0,0,0,0,0,0,0,0,0,0,0,0,0,0,0,0,0,0,0,0,0,0,0,0,0,0,0,0,0,0,0,0,0,0,0,0,0,0,0,0,0,0,0,0,0,0,0,0,0,-0.0453,-0.0454,0,-0.0537,-0.0538,-0.0539,-0.0589,-0.0589,-0.0589,-0.0589,-0.0664,-0.0666,-0.0668,0,0,0,0,0,0,0,0,0,0,0,0,0,-0.038,-0.0381,-0.0453,-0.0454,-0.0455,-0.0537,-0.0538,-0.0539,-0.0589,-0.0589,-0.0589,-0.0589,-0.0663,-0.0666,-0.0668,0,0,0,0,0,0,0,0,0,0,0,0,0,-0.0434,-0.0381,-0.0453,-0.0488,-0.0492,-0.0536,-0.0538,-0.054,-0.0589,-0.0589,-0.0589,-0.0589,-0.0663,-0.0666,-0.0669,-0.0686,0,0,-0.0678,-0.0679,0,0,0,0,0,0,0,0,-0.0431,-0.0437,-0.0482,-0.0486,-0.049,-0.0551,-0.054,-0.0588,-0.0589,-0.0554,-0.0589,-0.0589,-0.0624,-0.063,-0.0649,-0.069,-0.0693,-0.0678,-0.068,-0.0681,-0.0682,0,0,0,0,0,0,0,-0.0427,-0.0434,-0.0489,-0.0483,-0.0488,-0.0514,-0.0522,-0.0549,-0.059,-0.0557,-0.0561,-0.0566,-0.0626,-0.0646,-0.0651,-0.0694,-0.0678,-0.068,-0.0682,-0.0683,-0.0756,-0.0756,0,0,0,0,0,0,-0.041,-0.043,-0.0486,-0.0491,-0.0457,-0.0515,-0.0524,-0.0533,-0.059,-0.0598,-0.0566,-0.0568,-0.0641,-0.0648,-0.0654,-0.0669,-0.0681,-0.0684,-0.0685,-0.0756,-0.0756,-0.0756,0,0,0,0,0,0,-0.0408,-0.0415,-0.0483,-0.0461,-0.0471,-0.0515,-0.0526,-0.0535,-0.0558,-0.0596,-0.0604,-0.0581,-0.0641,-0.065,-0.0688,-0.0672,-0.0685,-0.0688,-0.0756,-0.0756,-0.0756,-0.0705,0,0,0,0,0,0,-0.0406,-0.0414,-0.0412,-0.0459,-0.0471,-0.0503,-0.0526,-0.0536,-0.056,-0.0564,-0.0611,-0.0618,-0.0642,-0.0683,-0.0691,-0.0677,-0.069,-0.0755,-0.0756,-0.0756,-0.0706,-0.0703,-0.07,0,0,0,0,0,-0.0403,-0.0402,-0.0411,-0.0418,-0.0468,-0.0503,-0.0511,-0.0545,-0.0561,-0.0568,-0.0608,-0.0617,-0.069,-0.0687,-0.0695,-0.0681,-0.0755,-0.0756,-0.0756,-0.0707,-0.0704,-0.07,0,0,0,0,0,0,-0.0364,-0.0409,-0.0419,-0.043,-0.0459,-0.051,-0.052,-0.0545,-0.0584,-0.0592,-0.0629,-0.0639,-0.0664,-0.0686,-0.0681,-0.0704,-0.072,-0.0722,-0.068,-0.0677,-0.0674,-0.0662,-0.0692,0,0,0,0,0,-0.0354,-0.0373,-0.0409,-0.0419,-0.043,-0.0475,-0.0493,-0.0519,-0.056,-0.0578,-0.061,-0.0645,-0.0672,-0.0685,-0.0716,-0.0733,-0.0749,-0.0727,-0.0725,-0.0722,-0.0719,-0.0749,-0.0748,-0.0757,-0.0757,-0.0757,0,0,-0.0343,-0.0369,-0.038,-0.0413,-0.044,-0.045,-0.0487,-0.0516,-0.0526,-0.0579,-0.0604,-0.064,-0.0678,-0.0697,-0.0708,-0.0712,-0.0724,-0.0722,-0.0719,-0.0718,-0.0749,-0.0748,-0.0747,-0.0757,-0.0757,-0.0757,0,0,-0.0334,-0.0352,-0.0363,-0.0377,-0.0411,-0.0438,-0.0444,-0.0492,-0.0515,-0.0546,-0.0584,-0.0618,-0.0656,-0.0682,-0.0698,-0.07,-0.0713,-0.0701,-0.0671,-0.07,-0.0699,-0.0698,-0.0698,-0.0698,-0.0693,-0.0693,-0.0693,0,-0.0315,-0.0327,-0.037,-0.0372,-0.0372,-0.0428,-0.0423,-0.0456,-0.0512,-0.0526,-0.0544,-0.0614,-0.0647,-0.0672,-0.0671,-0.0691,-0.0701,-0.0677,-0.0694,-0.0695,-0.0695,-0.0695,-0.0695,-0.0691,-0.0691,-0.0691,-0.0692,0,-0.0309,-0.0307,-0.0312,-0.0331,-0.0343,-0.0348,-0.0387,-0.0409,-0.044,-0.0473,-0.0513,-0.057,-0.0604,-0.0619,-0.0645,-0.0661,-0.0663,-0.069,-0.0698,-0.0691,-0.0691,-0.0693,-0.0687,-0.0688,-0.0689,-0.069,0,0,-0.0279,-0.0303,-0.0297,-0.0285,-0.0313,-0.032,-0.0337,-0.0363,-0.0367,-0.0429,-0.0436,-0.0502,-0.0537,-0.0559,-0.06,-0.063,-0.0637,-0.0653,-0.0656,-0.0643,-0.0676,-0.0674,-0.0676,-0.0666,-0.0666,-0.0667,-0.0667,0,-0.025,-0.0238,-0.0259,-0.0233,-0.0222,-0.0255,-0.0259,-0.0293,-0.0329,-0.0351,-0.0426,-0.0448,-0.0512,-0.0518,-0.0564,-0.062,-0.0643,-0.0633,-0.0694,-0.0695,-0.0688,-0.0679,-0.0646,-0.0644,-0.0669,-0.0669,-0.0669,0,-0.0222,-0.0214,-0.0187,-0.0169,-0.0166,-0.016,-0.0161,-0.0173,-0.0226,-0.0251,-0.0305,-0.036,-0.0415,-0.0467,-0.0564,-0.0553,-0.0607,-0.0656,-0.0658,-0.0677,-0.0698,-0.0662,-0.0646,-0.0672,-0.0672,-0.0672,-0.0671,0,-0.0174,-0.0153,-0.0126,-0.0117,-0.0117,-0.0106,-0.0107,-0.0143,-0.0144,-0.0184,-0.0184,-0.0276,-0.0296,-0.0401,-0.0502,-0.0529,-0.0599,-0.0648,-0.0698,-0.0697,-0.0693,-0.0691,-0.0712,-0.0712,-0.0712,-0.0712,-0.0712,0,-0.0132,-0.0108,-0.0096,-0.0077,-0.0038,-0.0048,-0.002,-0.0039,-0.0051,-0.0038,-0.0125,-0.0124,-0.028,-0.0344,-0.0463,-0.057,-0.0566,-0.0687,-0.0702,-0.0672,-0.0669,-0.072,-0.0721,-0.0712,-0.0712,-0.0712,-0.0712,0,-0.0118,-0.0102,-0.0069,-0.0039,-0.0021,0.0,0.0034,0.0055,0.0046,0.0064,0.0063,-0.0,-0.0075,-0.0224,-0.0365,-0.049,-0.0609,-0.0645,-0.0582,-0.0592,-0.0699,-0.0697,-0.0715,-0.0715,-0.0715,-0.0715,-0.0715,0,-0.0129,-0.0104,-0.0047,-0.0011,0.0,0.0043,0.0078,0.009,0.0118,0.0144,0.0162,0.0117,0.0095,-0.0104,-0.032,-0.0508,-0.0559,-0.0611,-0.0678,-0.0688,-0.0702,-0.07,-0.0698,-0.0639,-0.0638,-0.0638,-0.0638,0,-0.0141,-0.0111,-0.0077,0.0005,0.0059,0.0114,0.0171,0.0215,0.0246,0.0305,0.0376,0.0376,0.0181,0.001,-0.0258,-0.0405,-0.0588,-0.0609,-0.063,-0.0648,-0.0619,-0.0631,-0.0631,-0.0633,-0.0634,-0.0634,-0.0634,-0.0634,-0.0149,-0.012,-0.0041,0.0034,0.0104,0.02,0.0271,0.0357,0.0465,0.0567,0.0535,0.0565,0.031,-0.0003,-0.0244,-0.0511,-0.0542,-0.065,-0.0651,-0.0652,-0.0648,-0.0621,-0.0633,-0.0634,-0.0634,-0.0634,-0.0635,0,-0.0131,-0.0073,-0.0008,0.0108,0.0205,0.0233,0.0353,0.0461,0.0638,0.0697,0.0775,0.0592,0.0376,0.0097,-0.0288,-0.0541,-0.057,-0.0615,-0.0599,-0.0602,-0.0606,-0.0599,-0.0571,-0.0571,-0.0572,-0.0572,0,0,-0.011,-0.0023,0.0027,0.0197,0.028,0.0429,0.0515,0.0685,0.0778,0.0898,0.0911,0.0827,0.0478,0.0219,-0.0126,-0.0334,-0.0408,-0.0379,-0.041,-0.0355,-0.0354,-0.0613,-0.0604,0,0,0,0,0]}],[{"header":{"parameterUnit":"m.s-1","parameterCategory":2,"la1":30.2991,"la2":30.254,"lo1":-89.0895,"lo2":-89.0444,"dy":0.0017,"dx":0.0017,"nx":28,"ny":28,"refTime":"2025-08-04T09:00:00:Z","depth":"4","parameterNumber":2,"parameterNumberName":"U-component_of_CURRENTS"},"data":[0,0,0,0,0,0,0,0,0,0,0,0,0,0,0,0,0,0,0,0,0,0,0,0,0,0,0,0,0,0,0,0,0,0,0,0,0,0,0,0,0,0,0,0,0,0,0,0,0,0,0,0,0,0,0,0,0,0,0.0566,0.0566,0,0.0601,0.0602,0.0603,0.064,0.064,0.0641,0.0641,0.0782,0.0785,0.0788,0,0,0,0,0,0,0,0,0,0,0,0,0,0.0641,0.0639,0.0566,0.0566,0.0567,0.0601,0.0602,0.0603,0.064,0.064,0.0641,0.0641,0.078,0.0785,0.0789,0,0,0,0,0,0,0,0,0,0,0,0,0,0.0637,0.0638,0.0566,0.0588,0.059,0.0601,0.0602,0.0603,0.064,0.064,0.0641,0.0641,0.0779,0.0784,0.0789,0.0811,0,0,0.0805,0.0807,0,0,0,0,0,0,0,0,0.0637,0.0635,0.0584,0.0586,0.0589,0.0615,0.068,0.0677,0.064,0.0623,0.0641,0.0642,0.0734,0.0743,0.075,0.0818,0.0824,0.0805,0.0809,0.0811,0.0812,0,0,0,0,0,0,0,0.0637,0.0634,0.0582,0.0585,0.0587,0.0633,0.0633,0.068,0.0679,0.0625,0.0627,0.0627,0.0736,0.0745,0.0754,0.0826,0.0805,0.081,0.0813,0.0815,0.1012,0.1014,0,0,0,0,0,0,0.0622,0.0633,0.0581,0.0583,0.0612,0.0631,0.063,0.0608,0.0676,0.0686,0.0627,0.0629,0.0736,0.0748,0.0759,0.0913,0.0811,0.0816,0.0819,0.1009,0.1012,0.1014,0,0,0,0,0,0,0.0623,0.0616,0.058,0.0609,0.0608,0.0628,0.0603,0.0608,0.0653,0.0676,0.0688,0.067,0.0736,0.0752,0.0839,0.0914,0.0818,0.0823,0.1007,0.101,0.1013,0.1142,0,0,0,0,0,0,0.0625,0.0616,0.0609,0.0607,0.0605,0.0596,0.0603,0.0608,0.0649,0.0653,0.0717,0.0728,0.0738,0.0831,0.0844,0.092,0.0827,0.1004,0.1008,0.1012,0.1136,0.115,0.1162,0,0,0,0,0,0.0627,0.0621,0.0607,0.0602,0.0589,0.0597,0.0601,0.062,0.0651,0.0666,0.0727,0.0728,0.0865,0.0838,0.0852,0.0931,0.1002,0.1007,0.1012,0.113,0.1147,0.1161,0,0,0,0,0,0,0.0653,0.0623,0.0609,0.0593,0.0595,0.0602,0.0629,0.0645,0.0704,0.0728,0.0762,0.0778,0.0868,0.0881,0.0849,0.0994,0.0932,0.094,0.1016,0.1033,0.1046,0.0963,0.0831,0,0,0,0,0,0.0649,0.0637,0.0616,0.0608,0.0615,0.0631,0.0646,0.0655,0.0696,0.0724,0.0793,0.0852,0.0893,0.0949,0.0975,0.1078,0.1029,0.1132,0.1145,0.1157,0.1097,0.1083,0.1089,0.103,0.103,0.103,0,0,0.0651,0.0641,0.063,0.0614,0.0628,0.0652,0.0644,0.0674,0.0713,0.0733,0.0857,0.0894,0.092,0.1015,0.1061,0.1049,0.1164,0.1163,0.1173,0.1105,0.1089,0.1094,0.1099,0.1033,0.1033,0.1032,0,0,0.0667,0.065,0.065,0.0656,0.067,0.0689,0.0707,0.0751,0.0788,0.0876,0.0904,0.0965,0.1084,0.11,0.1121,0.1218,0.1211,0.128,0.1318,0.131,0.1313,0.1315,0.1327,0.1329,0.1317,0.1317,0.1317,0,0.0679,0.0667,0.0656,0.067,0.07,0.0716,0.0751,0.0781,0.0861,0.0902,0.0926,0.1062,0.1092,0.1168,0.1208,0.1242,0.1256,0.1268,0.1325,0.1325,0.1325,0.1335,0.1335,0.1324,0.1323,0.1322,0.1322,0,0.0683,0.0694,0.0711,0.0735,0.0765,0.0799,0.0832,0.0882,0.0952,0.0997,0.1094,0.1133,0.1203,0.1253,0.1263,0.1318,0.1337,0.1323,0.1281,0.1338,0.1347,0.1345,0.1334,0.1331,0.1329,0.1328,0,0,0.0662,0.0705,0.0713,0.0738,0.0808,0.0825,0.0897,0.0957,0.1006,0.1094,0.1163,0.1237,0.1276,0.1292,0.1342,0.1345,0.1386,0.1362,0.1359,0.1364,0.1412,0.1381,0.1375,0.1421,0.142,0.1419,0.1442,0,0.068,0.0729,0.0753,0.0822,0.086,0.0896,0.0967,0.1022,0.1091,0.1168,0.1194,0.1286,0.1296,0.1359,0.1361,0.1365,0.1377,0.1381,0.1356,0.1354,0.1312,0.1369,0.1415,0.144,0.1439,0.1439,0.1438,0,0.0674,0.0715,0.0791,0.0869,0.089,0.0939,0.1034,0.1094,0.1175,0.1239,0.1308,0.1344,0.1385,0.1367,0.1376,0.1405,0.14,0.1387,0.1388,0.1284,0.1315,0.1352,0.1433,0.1434,0.1434,0.1434,0.1435,0,0.066,0.0738,0.0812,0.0837,0.0931,0.0965,0.1029,0.1125,0.1173,0.129,0.1337,0.1402,0.1436,0.1419,0.1415,0.1417,0.1398,0.1392,0.135,0.135,0.1311,0.1307,0.1348,0.1348,0.1348,0.1348,0.1348,0,0.0663,0.071,0.0806,0.0824,0.0909,0.0983,0.1072,0.1133,0.1223,0.1292,0.1385,0.1418,0.1448,0.1451,0.1429,0.1395,0.1418,0.1326,0.1338,0.1378,0.1381,0.1314,0.1309,0.1349,0.1348,0.1348,0.1348,0,0.0628,0.0699,0.0759,0.0857,0.0896,0.0956,0.1067,0.1107,0.1231,0.1301,0.1341,0.1431,0.1468,0.148,0.1463,0.1416,0.1379,0.1361,0.1428,0.1448,0.1334,0.1336,0.1293,0.1291,0.129,0.129,0.1289,0,0.0605,0.0642,0.0752,0.0779,0.0823,0.0922,0.0977,0.111,0.1153,0.1291,0.1299,0.138,0.1436,0.1395,0.142,0.1402,0.1378,0.1362,0.1294,0.1303,0.1321,0.1325,0.1329,0.1287,0.1287,0.1287,0.1286,0,0.055,0.0606,0.0649,0.0716,0.0775,0.0847,0.093,0.0955,0.1107,0.1201,0.1254,0.1285,0.1333,0.1349,0.1375,0.1343,0.1368,0.135,0.135,0.1286,0.1296,0.1316,0.1321,0.1283,0.1283,0.1284,0.1284,0,0.0496,0.052,0.058,0.0642,0.0709,0.0756,0.0818,0.0881,0.0957,0.1108,0.1118,0.1226,0.1314,0.1319,0.1321,0.1322,0.1279,0.1217,0.1223,0.1228,0.1196,0.12,0.1147,0,0,0,0,0,0.0442,0.0464,0.049,0.0561,0.062,0.0674,0.0773,0.0837,0.0977,0.0987,0.1056,0.1108,0.1159,0.1205,0.1188,0.1269,0.1269,0.1242,0.1197,0.1262,0.1267,0.1236,0,0,0,0,0,0,0.0402,0.0434,0.0466,0.0491,0.0515,0.0591,0.066,0.0747,0.0771,0.0902,0.0935,0.1035,0.1094,0.1154,0.1162,0.1176,0.1125,0.1307,0.1305,0.126,0.1264,0.1267,0.1238,0,0,0,0,0]},{"header":{"parameterUnit":"m.s-1","parameterCategory":2,"la1":30.2991,"la2":30.254,"lo1":-89.0895,"lo2":-89.0444,"dy":0.0017,"dx":0.0017,"nx":28,"ny":28,"refTime":"2025-08-04T09:00:00:Z","depth":"4","parameterNumber":3,"parameterNumberName":"V-component_of_CURRENTS"},"data":[0,0,0,0,0,0,0,0,0,0,0,0,0,0,0,0,0,0,0,0,0,0,0,0,0,0,0,0,0,0,0,0,0,0,0,0,0,0,0,0,0,0,0,0,0,0,0,0,0,0,0,0,0,0,0,0,0,0,0.0172,0.0172,0,0.0181,0.0181,0.0181,0.0141,0.014,0.0139,0.0139,0.0018,0.0015,0.0013,0,0,0,0,0,0,0,0,0,0,0,0,0,0.0007,0.0011,0.0172,0.0172,0.0173,0.0181,0.0181,0.0181,0.0141,0.014,0.0139,0.0138,0.0019,0.0016,0.0013,0,0,0,0,0,0,0,0,0,0,0,0,0,0.005,0.0012,0.0171,0.0158,0.0157,0.0182,0.0181,0.0181,0.0141,0.014,0.0139,0.0138,0.002,0.0016,0.0012,0.001,0,0,0.0,-0.0001,0,0,0,0,0,0,0,0,0.0047,0.0055,0.0159,0.0159,0.0158,0.0163,0.0079,0.0119,0.0141,0.0142,0.0139,0.0137,0.0058,0.0051,0.005,0.0005,-0.0001,0.0,-0.0002,-0.0004,-0.0005,0,0,0,0,0,0,0,0.0045,0.0054,0.017,0.016,0.0159,0.0113,0.0118,0.0086,0.01,0.0142,0.014,0.0149,0.0056,0.0054,0.0047,-0.0002,0.0,-0.0003,-0.0006,-0.0007,-0.0181,-0.0183,0,0,0,0,0,0,0.0061,0.0052,0.017,0.0171,0.0104,0.0118,0.0123,0.0158,0.0103,0.0096,0.015,0.0148,0.0061,0.0051,0.0042,-0.0057,-0.0004,-0.0007,-0.001,-0.0179,-0.0181,-0.0184,0,0,0,0,0,0,0.0058,0.0073,0.017,0.0113,0.0123,0.0123,0.0162,0.0159,0.0157,0.0112,0.0101,0.0151,0.006,0.0048,-0.0017,-0.0059,-0.0009,-0.0013,-0.0176,-0.018,-0.0183,-0.0196,0,0,0,0,0,0,0.0054,0.0072,0.01,0.0116,0.0127,0.019,0.0163,0.0161,0.0167,0.0163,0.0109,0.0097,0.0058,-0.0011,-0.0021,-0.0063,-0.0016,-0.0173,-0.0178,-0.0182,-0.0193,-0.02,-0.0206,0,0,0,0,0,0.0048,0.0105,0.0102,0.0116,0.0169,0.0191,0.0192,0.0183,0.0169,0.0174,0.011,0.0099,-0.0046,-0.0015,-0.0026,-0.0071,-0.0171,-0.0176,-0.0181,-0.019,-0.0198,-0.0206,0,0,0,0,0,0,0.0053,0.0107,0.0104,0.0175,0.0181,0.0186,0.0203,0.019,0.015,0.014,0.0081,0.0064,-0.001,-0.0037,-0.0002,-0.0138,-0.0115,-0.0123,-0.0118,-0.0126,-0.0133,-0.0072,-0.0019,0,0,0,0,0,0.0069,0.0125,0.0145,0.02,0.0207,0.0202,0.021,0.0203,0.0176,0.016,0.011,0.0041,-0.0037,-0.0077,-0.013,-0.0193,-0.019,-0.0235,-0.0241,-0.0246,-0.0208,-0.025,-0.0255,-0.0201,-0.0201,-0.0201,0,0,0.0088,0.0124,0.0156,0.0203,0.0209,0.0208,0.0203,0.0227,0.0201,0.0151,0.0094,0.0031,-0.0056,-0.014,-0.0177,-0.0171,-0.0268,-0.0253,-0.0257,-0.0214,-0.0256,-0.026,-0.0264,-0.0205,-0.0204,-0.0204,0,0,0.0136,0.0183,0.0227,0.0229,0.0248,0.0237,0.0243,0.0239,0.0212,0.0159,0.0091,0.0019,-0.0084,-0.0157,-0.0212,-0.0278,-0.0292,-0.0324,-0.0316,-0.0359,-0.0363,-0.0365,-0.0388,-0.0392,-0.0338,-0.0338,-0.0338,0,0.0145,0.0202,0.0238,0.0255,0.0249,0.0245,0.0245,0.0224,0.0186,0.0154,0.014,-0.0026,-0.0087,-0.0212,-0.0248,-0.0287,-0.0311,-0.0279,-0.0363,-0.0366,-0.0368,-0.039,-0.0395,-0.0339,-0.0339,-0.0339,-0.0339,0,0.0207,0.0229,0.0255,0.0266,0.0266,0.0276,0.0246,0.0227,0.0189,0.0152,0.0052,-0.0035,-0.0129,-0.0189,-0.0241,-0.0323,-0.0334,-0.0355,-0.033,-0.0373,-0.0396,-0.04,-0.0341,-0.0341,-0.034,-0.034,0,0,0.0258,0.0289,0.0289,0.0272,0.0266,0.027,0.0233,0.019,0.016,0.0099,0.0042,-0.0096,-0.0122,-0.0183,-0.0268,-0.0315,-0.0366,-0.0345,-0.0347,-0.0341,-0.0458,-0.0438,-0.0441,-0.0416,-0.0416,-0.0417,-0.0472,0,0.0271,0.0289,0.0306,0.0286,0.0271,0.0253,0.0219,0.0181,0.0133,0.008,-0.0009,-0.0088,-0.0134,-0.0188,-0.0242,-0.0338,-0.0377,-0.0348,-0.0436,-0.0437,-0.0394,-0.0445,-0.0419,-0.0475,-0.0476,-0.0477,-0.0477,0,0.0293,0.0298,0.0288,0.0263,0.0262,0.0254,0.02,0.0175,0.0108,0.0074,0.0001,-0.006,-0.0157,-0.0174,-0.031,-0.0299,-0.0359,-0.0417,-0.0422,-0.0386,-0.0425,-0.0422,-0.0485,-0.0484,-0.0484,-0.0483,-0.0483,0,0.0262,0.0269,0.0254,0.0246,0.0232,0.0225,0.0217,0.0168,0.0154,0.0078,0.0067,-0.0056,-0.0106,-0.0203,-0.0315,-0.0322,-0.0442,-0.0469,-0.0501,-0.05,-0.049,-0.0486,-0.0527,-0.0527,-0.0527,-0.0526,-0.0526,0,0.0238,0.0219,0.0244,0.0231,0.0229,0.0218,0.0211,0.019,0.0165,0.0158,0.0073,0.004,-0.0112,-0.0204,-0.0305,-0.0413,-0.0434,-0.0481,-0.0512,-0.0501,-0.0498,-0.0494,-0.049,-0.0528,-0.0528,-0.0528,-0.0527,0,0.0187,0.0197,0.0189,0.0201,0.0213,0.0211,0.0249,0.025,0.0224,0.0216,0.0201,0.0107,-0.0011,-0.0157,-0.032,-0.0386,-0.0502,-0.0531,-0.0493,-0.0523,-0.053,-0.0526,-0.0564,-0.0564,-0.0563,-0.0563,-0.0563,0,0.0167,0.0159,0.019,0.022,0.0234,0.025,0.0279,0.0273,0.0288,0.0259,0.0263,0.0155,0.0076,-0.0126,-0.0287,-0.0476,-0.0498,-0.0546,-0.0539,-0.0507,-0.0534,-0.053,-0.0527,-0.0563,-0.0563,-0.0563,-0.0562,0,0.0152,0.0166,0.0183,0.0237,0.0278,0.0314,0.0355,0.0369,0.0368,0.0349,0.0317,0.0206,0.0078,-0.0103,-0.0253,-0.039,-0.0515,-0.0544,-0.0545,-0.0539,-0.0506,-0.0532,-0.0529,-0.0562,-0.0562,-0.0562,-0.0562,0,0.0176,0.0188,0.0235,0.0273,0.0327,0.0371,0.0382,0.0412,0.0419,0.0393,0.0378,0.0235,0.0142,-0.0057,-0.0199,-0.0334,-0.036,-0.0387,-0.0397,-0.04,-0.0341,-0.0275,-0.0274,0,0,0,0,0,0.0204,0.023,0.0281,0.0324,0.0371,0.0395,0.0441,0.0448,0.0441,0.0436,0.0412,0.0295,0.0094,-0.0004,-0.0132,-0.0206,-0.0395,-0.0358,-0.0434,-0.0557,-0.0558,-0.0516,0,0,0,0,0,0,0.0241,0.0284,0.0287,0.0358,0.0391,0.0441,0.0464,0.0463,0.0458,0.0437,0.0327,0.0277,0.0068,0.0163,-0.0133,-0.0176,-0.0235,-0.046,-0.0462,-0.0557,-0.0558,-0.0558,-0.0516,0,0,0,0,0]}]]